Szeged, Hungary

5:28 PM CEST on April 25, 2017 (GMT +0200)
Szeged

Weather History for LHUD - December, 2013

Change the Weather History Date:

Saturday, December 14, 2013

  Actual Average (LRAR) Record (LRAR)
Temperature  
Mean Temperature 29 °F -  
Max Temperature 30 °F 37 °F 51 °F (2000)
Min Temperature 28 °F 26 °F 8 °F (2001)
Degree Days  
Heating Degree Days 36    
Moisture  
Dew Point 27 °F    
Average Humidity 86    
Maximum Humidity 93    
Minimum Humidity 78    
Precipitation  
Precipitation 0.00 in 0.05 in - ()
Sea Level Pressure  
Sea Level Pressure 30.42 in    
Wind  
Wind Speed 2 mph ()    
Max Wind Speed 5 mph    
Max Gust Speed -    
Visibility 2.8 miles    
Events      
Averages and records for this station are not official NWS values.
T = Trace of Precipitation, MM = Missing Value Source: Averaged Metar Reports

Daily Weather History Graph

Daily Weather History Graph

Search for Another Location

Airport or City:

Trip Planner

Search our weather history database for the weather conditions in past years. The results will help you decide how hot, cold, wet, or windy it might be!

Date:

Astronomy

Dec. 14, 2013 Rise Set
Actual Time 7:14 AM CET 3:53 PM CET
Civil Twilight 6:40 AM CET 4:28 PM CET
Nautical Twilight 6:01 AM CET 5:06 PM CET
Astronomical Twilight 5:25 AM CET 5:43 PM CET
Moon 2:09 PM CET (12/14) 4:11 AM CET (12/14)
Length of Visible Light 9h 48m
Length of Day
8h 38m
Waxing Gibbous, 92% of the Moon is Illuminated
Dec 14
Waxing Gibbous
Dec 17
Full
Dec 25
Last Quarter
Jan 1
New
Jan 8
First Quarter

Hourly Weather History & Observations

Time (CET) Temp. Windchill Dew Point Humidity Pressure Visibility Wind Dir Wind Speed Gust Speed Precip Events Conditions
12:45 AM 32.0 °F - 28.4 °F 87% 30.36 in 3.7 mi NNW 1.2 mph - N/A   Overcast
1:00 AM 32 °F - 28 °F 78% 30.38 in 4 mi NNW 2.2 mph - -   Partly Cloudy
1:45 AM 32.0 °F 27.5 °F 28.4 °F 87% 30.36 in 3.7 mi NNE 4.6 mph - N/A   Overcast
2:45 AM 32.0 °F - 28.4 °F 87% 30.36 in 3.7 mi ENE 1.2 mph - N/A   Overcast
3:45 AM 30.2 °F - 26.6 °F 86% 30.36 in 3.7 mi NE 1.2 mph - N/A   Overcast
4:45 AM 30.2 °F 26.7 °F 26.6 °F 86% 30.36 in 3.7 mi North 3.5 mph - N/A   Overcast
5:15 AM 30.2 °F - 26.6 °F 86% 30.36 in 3.7 mi Calm Calm - N/A   Overcast
5:45 AM 30.2 °F - 26.6 °F 86% 30.36 in 3.7 mi Calm Calm - N/A   Overcast
6:15 AM 30.2 °F - 26.6 °F 86% 30.36 in 3.7 mi North 1.2 mph - N/A   Overcast
6:45 AM 30.2 °F - 26.6 °F 86% 30.39 in 2.5 mi NW 2.3 mph - N/A   Overcast
7:00 AM 30 °F - 27 °F 85% 30.39 in 2 mi NW 2.2 mph - -   Mist
7:15 AM 30.2 °F - 26.6 °F 86% 30.39 in - Calm Calm - N/A   Overcast
7:45 AM 30.2 °F - 26.6 °F 86% 30.39 in - NW 2.3 mph - N/A   Overcast
8:15 AM 30.2 °F - 26.6 °F 86% 30.39 in - SW 2.3 mph - N/A   Overcast
8:45 AM 30.2 °F 26.7 °F 26.6 °F 86% 30.39 in 2.2 mi West 3.5 mph - N/A   Overcast
9:15 AM 30.2 °F 25.4 °F 26.6 °F 86% 30.42 in 2.2 mi West 4.6 mph - N/A   Overcast
9:45 AM 30.2 °F - 26.6 °F 86% 30.42 in - Calm Calm - N/A   Overcast
10:15 AM 30.2 °F - 26.6 °F 86% 30.42 in - Calm Calm - N/A   Overcast
10:45 AM 30.2 °F - 26.6 °F 86% 30.42 in 2.5 mi Calm Calm - N/A   Overcast
11:15 AM 30.2 °F - 26.6 °F 86% 30.42 in 2.5 mi WNW 2.3 mph - N/A   Overcast
11:45 AM 30.2 °F - 26.6 °F 86% 30.42 in 2.2 mi NW 2.3 mph - N/A   Overcast
12:15 PM 30.2 °F 26.7 °F 26.6 °F 86% 30.42 in - NW 3.5 mph - N/A   Overcast
12:45 PM 30.2 °F 25.4 °F 26.6 °F 86% 30.42 in - NW 4.6 mph - N/A   Overcast
1:00 PM 30 °F - 27 °F 84% 30.44 in 2 mi NW 4.5 mph - -   Mist
1:15 PM 30.2 °F - 26.6 °F 86% 30.42 in - Calm Calm - N/A   Overcast
1:45 PM 30.2 °F - 26.6 °F 86% 30.42 in 2.5 mi North 1.2 mph - N/A   Overcast
2:15 PM 30.2 °F 26.7 °F 26.6 °F 86% 30.42 in 2.5 mi NW 3.5 mph - N/A   Overcast
2:45 PM 30.2 °F 25.4 °F 26.6 °F 86% 30.42 in 2.8 mi NW 4.6 mph - N/A   Overcast
3:15 PM 30.2 °F - 26.6 °F 86% 30.42 in 2.8 mi NE 1.2 mph - N/A   Overcast
3:45 PM 30.2 °F - 26.6 °F 86% 30.42 in 2.5 mi WSW 2.3 mph - N/A   Overcast
4:15 PM 30.2 °F - 26.6 °F 86% 30.45 in - South 1.2 mph - N/A   Overcast
4:45 PM 30.2 °F - 26.6 °F 86% 30.45 in 2.8 mi WSW 2.3 mph - N/A   Overcast
5:15 PM 30.2 °F - 26.6 °F 86% 30.45 in 2.8 mi Calm Calm - N/A   Overcast
5:45 PM 30.2 °F 26.7 °F 26.6 °F 86% 30.45 in 2.5 mi WSW 3.5 mph - N/A   Overcast
6:15 PM 28.4 °F - 26.6 °F 93% 30.45 in 2.5 mi West 2.3 mph - N/A   Overcast
6:45 PM 30.2 °F - 26.6 °F 86% 30.45 in 2.5 mi Calm Calm - N/A   Overcast
7:00 PM 29 °F - 26 °F 85% 30.48 in 2 mi Calm Calm - -   Mist
7:15 PM 30.2 °F - 26.6 °F 86% 30.45 in 2.8 mi NW 2.3 mph - N/A   Overcast
7:45 PM 30.2 °F 26.7 °F 26.6 °F 86% 30.48 in 3.1 mi WNW 3.5 mph - N/A   Overcast
8:12 PM 28.4 °F - 26.6 °F 93% 30.51 in 3.1 mi NW 2.3 mph - N/A   Light Freezing Rain
8:15 PM 28.4 °F - 26.6 °F 93% 30.48 in 3.1 mi NW 2.3 mph - N/A   Light Freezing Rain
8:45 PM 30.2 °F - 26.6 °F 86% 30.48 in 3.1 mi NNW 2.3 mph - N/A   Light Freezing Rain
9:45 PM 30.2 °F - 26.6 °F 86% 30.51 in 2.5 mi North 2.3 mph - N/A   Light Freezing Rain
10:45 PM 30.2 °F - 26.6 °F 86% 30.51 in 1.9 mi ESE 2.3 mph - N/A   Light Freezing Rain
11:45 PM 30.2 °F - 26.6 °F 86% 30.51 in 1.9 mi SSW 1.2 mph - N/A   Overcast